Simultaneous Nadir Overpasses (SNOs) Predictions

Prediction of SNOs between METOP-A and NOAA-19 Satellite Orbit:

Table of predicted SNOs for the next 14.0 days since TLE Epoch: 6/1/2018
Index Date (METOP-A) Time (METOP-A) Lat,Lon (METOP-A) SZA (METOP-A ) Date (NOAA-19) Time (NOAA-19) Lat,Lon (NOAA-19) SZA (NOAA-19 ) Distance(km) Time Diff (sec)
1 06/11/2018 01:32:53 78.55, 165.26 55.56 06/11/2018 01:31:43 78.58, 165.27 55.58 3.81 70
2 06/11/2018 02:23:34 -78.55, -27.37 124.44 06/11/2018 02:22:48 -78.56, -27.35 124.44 0.61 46
3 06/11/2018 03:14:14 78.56, 140.03 55.57 06/11/2018 03:13:43 78.54, 140.04 55.55 2.77 31
4 06/11/2018 04:04:56 -78.53, -52.83 124.47 06/11/2018 04:04:49 -78.55, -52.82 124.45 2.24 7
5 06/11/2018 04:55:36 78.54, 114.56 55.54 06/11/2018 04:55:44 78.53, 114.58 55.54 1.10 8
6 06/11/2018 05:46:18 -78.51, -78.29 124.50 06/11/2018 05:46:50 -78.55, -78.28 124.46 3.94 32
7 06/11/2018 06:36:58 78.52, 89.10 55.51 06/11/2018 06:37:45 78.53, 89.11 55.53 0.75 47
8 06/11/2018 07:27:39 -78.53,-103.53 124.48 06/11/2018 07:28:50 -78.51,-103.51 124.50 2.66 71




NCC Satellite Simultaneous Nadir Overpasses (SNOs) Prediction Service
